Salten — LMFM — position and weather

sailwx.info

Track history (hours):
 
Tides and Currents Weather Stations Pressure Air Temp Water Temp Dewpoint Dewpoint Depression Visibility Wind Speed Wind Dir Waves Ship Positions

Salten

Last reported at 2014-Jul-24 09:05 UTC. Time now 2014-Jul-24 17:01 UTC.
Position N 67°17' E 014°22'.

Length 41 m; draft 1.5 m.

Type: High speed craft. MMSI: 259387000.

Date/timePositionNaut miles runAvg speedWind from/ knotsBaromVisibWave heightAir tempDewpointWater temp
2014-Jul-24 09:05N 67°17' E 014°22'0 0.0
2014-Jul-24 08:33N 67°17' E 014°22'15 0.9
2014-Jul-23 16:20N 67°31' E 014°32'1518.8
2014-Jul-23 15:33N 67°17' E 014°22'0 0.0
2014-Jul-23 14:33N 67°17' E 014°22'0 0.0
2014-Jul-23 13:33N 67°17' E 014°22'0 0.0
2014-Jul-23 12:33N 67°17' E 014°22'0 0.0
2014-Jul-23 11:33N 67°17' E 014°22'0 0.0
2014-Jul-23 10:33N 67°17' E 014°22'4813.6
2014-Jul-23 07:03N 66°39' E 013°08'815.7
2014-Jul-23 06:33N 66°32' E 012°58'2618.5
2014-Jul-23 05:09N 66°07' E 012°46'6 3.1
2014-Jul-23 03:05N 66°01' E 012°38'0 0.0
2014-Jul-23 02:04N 66°01' E 012°38'21 2.8
2014-Jul-22 18:33N 66°21' E 012°57'5313.4
2014-Jul-22 14:33N 67°07' E 014°03'1212.3
2014-Jul-22 13:33N 67°17' E 014°22'0 0.0
2014-Jul-22 12:33N 67°17' E 014°22'0 0.0
2014-Jul-22 11:33N 67°17' E 014°22'0 0.0
2014-Jul-22 10:33N 67°17' E 014°22'0 0.0
2014-Jul-22 09:32N 67°17' E 014°22'0 0.0
2014-Jul-22 08:33N 67°17' E 014°22'7 0.4
2014-Jul-21 15:33N 67°24' E 014°27'7 7.3
2014-Jul-21 14:33N 67°17' E 014°22'0 0.0
2014-Jul-21 13:33N 67°17' E 014°22'0 0.0
2014-Jul-21 12:33N 67°17' E 014°22'0 0.0
2014-Jul-21 11:33N 67°17' E 014°22'0 0.0
2014-Jul-21 10:33N 67°17' E 014°22'0 0.0
2014-Jul-21 09:33N 67°17' E 014°22'0 0.0
2014-Jul-21 08:34N 67°17' E 014°22'8 8.0
2014-Jul-21 07:34N 67°25' E 014°27'8 0.6
2014-Jul-20 18:33N 67°17' E 014°22'0 0.2
2014-Jul-20 17:33N 67°17' E 014°22'8 0.3
2014-Jul-19 15:34N 67°24' E 014°27'8 7.5
2014-Jul-19 14:33N 67°17' E 014°22'0 0.0
2014-Jul-19 13:33N 67°17' E 014°22'0 0.0
2014-Jul-19 12:33N 67°17' E 014°22'0 0.0
2014-Jul-19 11:33N 67°17' E 014°22'0 0.0
2014-Jul-19 10:33N 67°17' E 014°22'0 0.0
2014-Jul-19 09:33N 67°17' E 014°22'0 0.0
2014-Jul-19 08:32N 67°17' E 014°22'8 0.5
2014-Jul-18 16:19N 67°24' E 014°31'810.4
2014-Jul-18 15:33N 67°17' E 014°22'7 3.7
2014-Jul-18 13:33N 67°24' E 014°26'7 7.4
2014-Jul-18 12:34N 67°17' E 014°22'0 0.1
2014-Jul-18 11:33N 67°17' E 014°22'0 0.0
2014-Jul-18 10:34N 67°17' E 014°22'0 0.0
2014-Jul-18 09:32N 67°17' E 014°22'0 0.0
2014-Jul-18 08:33N 67°17' E 014°22'9 8.8
2014-Jul-18 07:33N 67°26' E 014°27'2 0.2
2014-Jul-17 15:33N 67°23' E 014°26'6 6.5
2014-Jul-17 14:34N 67°17' E 014°22'0 0.0
2014-Jul-17 13:32N 67°17' E 014°22'0 0.0
2014-Jul-17 12:34N 67°17' E 014°22'0 0.0
2014-Jul-17 11:34N 67°17' E 014°22'0 0.0
2014-Jul-17 10:33N 67°17' E 014°22'0 0.0
2014-Jul-17 09:34N 67°17' E 014°22'0 0.0
2014-Jul-17 08:34N 67°17' E 014°22'43 1.7
2014-Jul-16 07:25N 66°42' E 013°16'1915.7
2014-Jul-16 06:11N 66°26' E 012°49'1818.2
2014-Jul-16 05:13N 66°08' E 012°50'13 1.2
2014-Jul-15 18:33N 66°22' E 012°51'1412.8
2014-Jul-15 17:27N 66°35' E 012°59'73 7.1
2014-Jul-15 07:16N 67°36' E 014°42'  
Track history (hours):
 
Tides and Currents Weather Stations Pressure Air Temp Water Temp Dewpoint Dewpoint Depression Visibility Wind Speed Wind Dir Waves Ship Positions

Salten

Last reported at 2014-Jul-24 09:05 UTC. Time now 2014-Jul-24 17:01 UTC.
Position N 67°17' E 014°22'.

Length 41 m; draft 1.5 m.

Type: High speed craft. MMSI: 259387000.

Date/timePositionNaut miles runAvg speedWind from/ knotsBaromVisibWave heightAir tempDewpointWater temp
2014-Jul-24 09:05N 67°17' E 014°22'0 0.0
2014-Jul-24 08:33N 67°17' E 014°22'15 0.9
2014-Jul-23 16:20N 67°31' E 014°32'1518.8
2014-Jul-23 15:33N 67°17' E 014°22'0 0.0
2014-Jul-23 14:33N 67°17' E 014°22'0 0.0
2014-Jul-23 13:33N 67°17' E 014°22'0 0.0
2014-Jul-23 12:33N 67°17' E 014°22'0 0.0
2014-Jul-23 11:33N 67°17' E 014°22'0 0.0
2014-Jul-23 10:33N 67°17' E 014°22'4813.6
2014-Jul-23 07:03N 66°39' E 013°08'815.7
2014-Jul-23 06:33N 66°32' E 012°58'2618.5
2014-Jul-23 05:09N 66°07' E 012°46'6 3.1
2014-Jul-23 03:05N 66°01' E 012°38'0 0.0
2014-Jul-23 02:04N 66°01' E 012°38'21 2.8
2014-Jul-22 18:33N 66°21' E 012°57'5313.4
2014-Jul-22 14:33N 67°07' E 014°03'1212.3
2014-Jul-22 13:33N 67°17' E 014°22'0 0.0
2014-Jul-22 12:33N 67°17' E 014°22'0 0.0
2014-Jul-22 11:33N 67°17' E 014°22'0 0.0
2014-Jul-22 10:33N 67°17' E 014°22'0 0.0
2014-Jul-22 09:32N 67°17' E 014°22'0 0.0
2014-Jul-22 08:33N 67°17' E 014°22'7 0.4
2014-Jul-21 15:33N 67°24' E 014°27'7 7.3
2014-Jul-21 14:33N 67°17' E 014°22'0 0.0
2014-Jul-21 13:33N 67°17' E 014°22'0 0.0
2014-Jul-21 12:33N 67°17' E 014°22'0 0.0
2014-Jul-21 11:33N 67°17' E 014°22'0 0.0
2014-Jul-21 10:33N 67°17' E 014°22'0 0.0
2014-Jul-21 09:33N 67°17' E 014°22'0 0.0
2014-Jul-21 08:34N 67°17' E 014°22'8 8.0
2014-Jul-21 07:34N 67°25' E 014°27'8 0.6
2014-Jul-20 18:33N 67°17' E 014°22'0 0.2
2014-Jul-20 17:33N 67°17' E 014°22'8 0.3
2014-Jul-19 15:34N 67°24' E 014°27'8 7.5
2014-Jul-19 14:33N 67°17' E 014°22'0 0.0
2014-Jul-19 13:33N 67°17' E 014°22'0 0.0
2014-Jul-19 12:33N 67°17' E 014°22'0 0.0
2014-Jul-19 11:33N 67°17' E 014°22'0 0.0
2014-Jul-19 10:33N 67°17' E 014°22'0 0.0
2014-Jul-19 09:33N 67°17' E 014°22'0 0.0
2014-Jul-19 08:32N 67°17' E 014°22'8 0.5
2014-Jul-18 16:19N 67°24' E 014°31'810.4
2014-Jul-18 15:33N 67°17' E 014°22'7 3.7
2014-Jul-18 13:33N 67°24' E 014°26'7 7.4
2014-Jul-18 12:34N 67°17' E 014°22'0 0.1
2014-Jul-18 11:33N 67°17' E 014°22'0 0.0
2014-Jul-18 10:34N 67°17' E 014°22'0 0.0
2014-Jul-18 09:32N 67°17' E 014°22'0 0.0
2014-Jul-18 08:33N 67°17' E 014°22'9 8.8
2014-Jul-18 07:33N 67°26' E 014°27'2 0.2
2014-Jul-17 15:33N 67°23' E 014°26'6 6.5
2014-Jul-17 14:34N 67°17' E 014°22'0 0.0
2014-Jul-17 13:32N 67°17' E 014°22'0 0.0
2014-Jul-17 12:34N 67°17' E 014°22'0 0.0
2014-Jul-17 11:34N 67°17' E 014°22'0 0.0
2014-Jul-17 10:33N 67°17' E 014°22'0 0.0
2014-Jul-17 09:34N 67°17' E 014°22'0 0.0
2014-Jul-17 08:34N 67°17' E 014°22'43 1.7
2014-Jul-16 07:25N 66°42' E 013°16'1915.7
2014-Jul-16 06:11N 66°26' E 012°49'1818.2
2014-Jul-16 05:13N 66°08' E 012°50'13 1.2
2014-Jul-15 18:33N 66°22' E 012°51'1412.8
2014-Jul-15 17:27N 66°35' E 012°59'73 7.1
2014-Jul-15 07:16N 67°36' E 014°42'  

Dump ship's entire track history